date,time,SUV Intensity [MED/Hr],UV Index,Daily total [MED],Since Last [MED]
18/01/2022,00:03:36,0.001,0.0,0.0,0.0
18/01/2022,00:04:36,0.000,0.0,0.0,0.0
18/01/2022,00:05:35,0.000,0.0,0.0,0.0
18/01/2022,00:06:44,0.000,0.0,0.0,0.0
18/01/2022,00:07:34,0.001,0.0,0.0,0.0
18/01/2022,00:08:36,0.001,0.0,0.0,0.0
18/01/2022,00:09:37,-0.000,0.0,0.0,0.0
18/01/2022,00:10:36,-0.000,0.0,0.0,0.0
18/01/2022,00:11:36,0.000,0.0,0.0,0.0
18/01/2022,00:12:37,-0.001,0.0,0.0,0.0
18/01/2022,00:13:36,-0.001,0.0,0.0,0.0
18/01/2022,00:14:35,0.000,0.0,0.0,0.0
18/01/2022,00:15:38,0.000,0.0,0.0,0.0
18/01/2022,00:16:36,-0.001,0.0,0.0,0.0
18/01/2022,00:17:36,-0.001,0.0,0.0,0.0
18/01/2022,00:18:37,0.000,0.0,0.0,0.0
18/01/2022,00:19:36,-0.000,0.0,0.0,0.0
18/01/2022,00:20:37,0.001,0.0,0.0,0.0
18/01/2022,00:21:37,-0.001,0.0,0.0,0.0
18/01/2022,00:22:35,0.000,0.0,0.0,0.0
18/01/2022,00:23:36,0.001,0.0,0.0,0.0
18/01/2022,00:24:36,-0.001,0.0,0.0,0.0
18/01/2022,00:25:36,0.000,0.0,0.0,0.0
18/01/2022,00:26:36,0.000,0.0,0.0,0.0
18/01/2022,00:27:36,-0.000,0.0,0.0,0.0
18/01/2022,00:28:37,-0.001,0.0,0.0,0.0
18/01/2022,00:29:36,-0.001,0.0,0.0,0.0
18/01/2022,00:30:36,0.000,0.0,0.0,0.0
18/01/2022,00:31:37,-0.001,0.0,0.0,0.0
18/01/2022,00:32:36,0.000,0.0,0.0,0.0
18/01/2022,00:33:36,0.001,0.0,0.0,0.0
18/01/2022,00:34:36,0.000,0.0,0.0,0.0
18/01/2022,00:35:36,0.000,0.0,0.0,0.0
18/01/2022,00:36:37,-0.000,0.0,0.0,0.0
18/01/2022,00:37:36,0.001,0.0,0.0,0.0
18/01/2022,00:38:36,0.000,0.0,0.0,0.0
18/01/2022,00:39:36,0.000,0.0,0.0,0.0
18/01/2022,00:40:36,0.000,0.0,0.0,0.0
18/01/2022,00:41:36,0.000,0.0,0.0,0.0
18/01/2022,00:42:37,0.000,0.0,0.0,0.0
18/01/2022,00:43:23,0.000,0.0,0.0,0.0
18/01/2022,00:44:38,0.001,0.0,0.0,0.0
18/01/2022,00:45:44,-0.000,0.0,0.0,0.0
18/01/2022,00:46:36,0.000,0.0,0.0,0.0
18/01/2022,00:47:36,0.000,0.0,0.0,0.0
18/01/2022,00:48:36,0.000,0.0,0.0,0.0
18/01/2022,00:49:37,0.000,0.0,0.0,0.0
18/01/2022,00:50:36,0.000,0.0,0.0,0.0
18/01/2022,00:51:36,-0.001,0.0,0.0,0.0
18/01/2022,00:52:36,-0.000,0.0,0.0,0.0
18/01/2022,00:53:47,0.000,0.0,0.0,0.0
18/01/2022,00:54:37,0.000,0.0,0.0,0.0
18/01/2022,00:55:36,-0.001,0.0,0.0,0.0
18/01/2022,00:56:44,0.001,0.0,0.0,0.0
18/01/2022,00:57:36,-0.001,0.0,0.0,0.0
18/01/2022,00:58:36,-0.000,0.0,0.0,0.0
18/01/2022,00:59:36,0.000,0.0,0.0,0.0
18/01/2022,01:00:37,0.000,0.0,0.0,0.0
18/01/2022,01:01:37,0.000,0.0,0.0,0.0
18/01/2022,01:02:36,0.001,0.0,0.0,0.0
18/01/2022,01:03:36,-0.000,0.0,0.0,0.0
18/01/2022,01:04:36,-0.001,0.0,0.0,0.0
18/01/2022,01:05:36,-0.001,0.0,0.0,0.0
18/01/2022,01:06:44,-0.001,0.0,0.0,0.0
18/01/2022,01:07:44,0.000,0.0,0.0,0.0
18/01/2022,01:08:36,-0.000,0.0,0.0,0.0
18/01/2022,01:09:37,-0.000,0.0,0.0,0.0
18/01/2022,01:10:36,0.000,0.0,0.0,0.0
18/01/2022,01:11:36,0.000,0.0,0.0,0.0
18/01/2022,01:12:36,0.000,0.0,0.0,0.0
18/01/2022,01:13:36,0.000,0.0,0.0,0.0
18/01/2022,01:14:45,-0.001,0.0,0.0,0.0
18/01/2022,01:15:36,0.001,0.0,0.0,0.0
18/01/2022,01:16:36,-0.001,0.0,0.0,0.0
18/01/2022,01:17:36,0.001,0.0,0.0,0.0
18/01/2022,01:18:37,0.001,0.0,0.0,0.0
18/01/2022,01:19:36,-0.000,0.0,0.0,0.0
18/01/2022,01:21:00,-0.000,0.0,0.0,0.0
18/01/2022,01:22:37,0.000,0.0,0.0,0.0
18/01/2022,01:23:36,0.000,0.0,0.0,0.0
18/01/2022,01:24:36,0.000,0.0,0.0,0.0
18/01/2022,01:25:36,0.000,0.0,0.0,0.0
18/01/2022,01:26:36,0.001,0.0,0.0,0.0
18/01/2022,01:27:36,-0.001,0.0,0.0,0.0
18/01/2022,01:28:36,-0.001,0.0,0.0,0.0
18/01/2022,01:29:35,0.000,0.0,0.0,0.0
18/01/2022,01:30:36,0.000,0.0,0.0,0.0
18/01/2022,01:31:36,0.001,0.0,0.0,0.0
18/01/2022,01:32:36,0.000,0.0,0.0,0.0
18/01/2022,01:33:45,0.000,0.0,0.0,0.0
18/01/2022,01:34:45,-0.001,0.0,0.0,0.0
18/01/2022,01:35:36,0.000,0.0,0.0,0.0
18/01/2022,01:36:36,0.001,0.0,0.0,0.0
18/01/2022,01:37:36,-0.001,0.0,0.0,0.0
18/01/2022,01:38:36,-0.001,0.0,0.0,0.0
18/01/2022,01:39:36,-0.000,0.0,0.0,0.0
18/01/2022,01:40:36,0.000,0.0,0.0,0.0
18/01/2022,01:41:45,-0.000,0.0,0.0,0.0
18/01/2022,01:42:36,-0.000,0.0,0.0,0.0
18/01/2022,01:43:36,0.001,0.0,0.0,0.0
18/01/2022,01:44:36,-0.001,0.0,0.0,0.0
18/01/2022,01:45:36,0.001,0.0,0.0,0.0
18/01/2022,01:46:36,0.000,0.0,0.0,0.0
18/01/2022,01:47:36,-0.001,0.0,0.0,0.0
18/01/2022,01:48:37,-0.000,0.0,0.0,0.0
18/01/2022,01:49:36,-0.000,0.0,0.0,0.0
18/01/2022,01:50:36,0.000,0.0,0.0,0.0
18/01/2022,01:51:44,-0.001,0.0,0.0,0.0
18/01/2022,01:52:37,0.000,0.0,0.0,0.0
18/01/2022,01:53:36,-0.000,0.0,0.0,0.0
18/01/2022,01:54:45,-0.000,0.0,0.0,0.0
18/01/2022,01:55:35,0.001,0.0,0.0,0.0
18/01/2022,01:56:36,0.001,0.0,0.0,0.0
18/01/2022,01:57:44,0.000,0.0,0.0,0.0
18/01/2022,01:58:36,0.001,0.0,0.0,0.0
18/01/2022,01:59:36,0.000,0.0,0.0,0.0
18/01/2022,02:00:36,0.001,0.0,0.0,0.0
18/01/2022,02:01:36,0.000,0.0,0.0,0.0
18/01/2022,02:02:36,-0.001,0.0,0.0,0.0
18/01/2022,02:03:36,-0.001,0.0,0.0,0.0
18/01/2022,02:04:36,0.000,0.0,0.0,0.0
18/01/2022,02:05:45,0.000,0.0,0.0,0.0
18/01/2022,02:06:36,0.000,0.0,0.0,0.0
18/01/2022,02:07:37,0.000,0.0,0.0,0.0
18/01/2022,02:08:36,0.000,0.0,0.0,0.0
18/01/2022,02:09:36,0.000,0.0,0.0,0.0
18/01/2022,02:10:37,0.001,0.0,0.0,0.0
18/01/2022,02:11:36,0.000,0.0,0.0,0.0
18/01/2022,02:12:37,0.001,0.0,0.0,0.0
18/01/2022,02:13:36,0.000,0.0,0.0,0.0
18/01/2022,02:14:36,0.001,0.0,0.0,0.0
18/01/2022,02:15:36,0.001,0.0,0.0,0.0
18/01/2022,02:16:36,0.001,0.0,0.0,0.0
18/01/2022,02:17:36,-0.000,0.0,0.0,0.0
18/01/2022,02:18:37,-0.000,0.0,0.0,0.0
18/01/2022,02:19:36,0.001,0.0,0.0,0.0
18/01/2022,02:20:36,0.000,0.0,0.0,0.0
18/01/2022,02:21:36,0.001,0.0,0.0,0.0
18/01/2022,02:22:36,0.000,0.0,0.0,0.0
18/01/2022,02:23:36,0.001,0.0,0.0,0.0
18/01/2022,02:24:36,-0.001,0.0,0.0,0.0
18/01/2022,02:25:44,0.000,0.0,0.0,0.0
18/01/2022,02:26:36,0.000,0.0,0.0,0.0
18/01/2022,02:27:36,0.000,0.0,0.0,0.0
18/01/2022,02:28:36,0.000,0.0,0.0,0.0
18/01/2022,02:29:36,0.000,0.0,0.0,0.0
18/01/2022,02:30:36,-0.001,0.0,0.0,0.0
18/01/2022,02:31:44,0.001,0.0,0.0,0.0
18/01/2022,02:32:36,0.000,0.0,0.0,0.0
18/01/2022,02:33:36,0.000,0.0,0.0,0.0
18/01/2022,02:34:36,-0.000,0.0,0.0,0.0
18/01/2022,02:35:36,0.000,0.0,0.0,0.0
18/01/2022,02:36:37,0.001,0.0,0.0,0.0
18/01/2022,02:37:36,-0.001,0.0,0.0,0.0
18/01/2022,02:38:36,0.000,0.0,0.0,0.0
18/01/2022,02:39:45,-0.000,0.0,0.0,0.0
18/01/2022,02:40:36,0.001,0.0,0.0,0.0
18/01/2022,02:41:36,0.000,0.0,0.0,0.0
18/01/2022,02:42:37,0.000,0.0,0.0,0.0
18/01/2022,02:43:36,-0.000,0.0,0.0,0.0
18/01/2022,02:44:36,0.000,0.0,0.0,0.0
18/01/2022,02:45:37,0.000,0.0,0.0,0.0
18/01/2022,02:46:37,0.000,0.0,0.0,0.0
18/01/2022,02:47:36,0.000,0.0,0.0,0.0
18/01/2022,02:48:37,0.000,0.0,0.0,0.0
18/01/2022,02:49:44,0.000,0.0,0.0,0.0
18/01/2022,02:50:38,0.000,0.0,0.0,0.0
18/01/2022,02:51:36,0.000,0.0,0.0,0.0
18/01/2022,02:52:36,-0.001,0.0,0.0,0.0
18/01/2022,02:53:37,0.001,0.0,0.0,0.0
18/01/2022,02:54:36,0.000,0.0,0.0,0.0
18/01/2022,02:55:27,0.000,0.0,0.0,0.0
18/01/2022,02:56:37,0.000,0.0,0.0,0.0
18/01/2022,02:57:36,0.000,0.0,0.0,0.0
18/01/2022,02:58:37,0.001,0.0,0.0,0.0
18/01/2022,02:59:36,-0.000,0.0,0.0,0.0
18/01/2022,03:00:36,-0.001,0.0,0.0,0.0
18/01/2022,03:01:36,0.000,0.0,0.0,0.0
18/01/2022,03:02:45,0.000,0.0,0.0,0.0
18/01/2022,03:03:36,0.000,0.0,0.0,0.0
18/01/2022,03:04:36,0.000,0.0,0.0,0.0
18/01/2022,03:05:36,0.000,0.0,0.0,0.0
18/01/2022,03:06:37,-0.000,0.0,0.0,0.0
18/01/2022,03:07:36,0.000,0.0,0.0,0.0
18/01/2022,03:08:36,-0.000,0.0,0.0,0.0
18/01/2022,03:09:36,-0.001,0.0,0.0,0.0
18/01/2022,03:11:29,0.000,0.0,0.0,0.0
18/01/2022,03:12:38,0.000,0.0,0.0,0.0
18/01/2022,03:13:37,0.000,0.0,0.0,0.0
18/01/2022,03:14:36,0.000,0.0,0.0,0.0
18/01/2022,03:15:36,0.001,0.0,0.0,0.0
18/01/2022,03:16:44,-0.001,0.0,0.0,0.0
18/01/2022,03:17:36,0.000,0.0,0.0,0.0
18/01/2022,03:18:36,-0.000,0.0,0.0,0.0
18/01/2022,03:19:37,0.000,0.0,0.0,0.0
18/01/2022,03:20:36,0.001,0.0,0.0,0.0
18/01/2022,03:21:36,0.000,0.0,0.0,0.0
18/01/2022,03:22:36,0.000,0.0,0.0,0.0
18/01/2022,03:23:38,0.000,0.0,0.0,0.0
18/01/2022,03:24:37,0.000,0.0,0.0,0.0
18/01/2022,03:25:36,0.000,0.0,0.0,0.0
18/01/2022,03:26:45,-0.000,0.0,0.0,0.0
18/01/2022,03:27:36,0.000,0.0,0.0,0.0
18/01/2022,03:28:37,0.000,0.0,0.0,0.0
18/01/2022,03:29:36,0.000,0.0,0.0,0.0
18/01/2022,03:30:36,-0.001,0.0,0.0,0.0
18/01/2022,03:31:36,0.000,0.0,0.0,0.0
18/01/2022,03:32:36,0.001,0.0,0.0,0.0
18/01/2022,03:33:36,0.001,0.0,0.0,0.0
18/01/2022,03:34:36,0.000,0.0,0.0,0.0
18/01/2022,03:35:36,-0.000,0.0,0.0,0.0
18/01/2022,03:36:37,-0.000,0.0,0.0,0.0
18/01/2022,03:37:36,0.001,0.0,0.0,0.0
18/01/2022,03:38:44,-0.000,0.0,0.0,0.0
18/01/2022,03:39:36,-0.000,0.0,0.0,0.0
18/01/2022,03:40:37,0.000,0.0,0.0,0.0
18/01/2022,03:41:36,0.000,0.0,0.0,0.0
18/01/2022,03:42:39,0.001,0.0,0.0,0.0
18/01/2022,03:43:36,0.000,0.0,0.0,0.0
18/01/2022,03:44:36,-0.000,0.0,0.0,0.0
18/01/2022,03:45:37,-0.000,0.0,0.0,0.0
18/01/2022,03:46:36,0.000,0.0,0.0,0.0
18/01/2022,03:47:36,0.000,0.0,0.0,0.0
18/01/2022,03:48:37,0.000,0.0,0.0,0.0
18/01/2022,03:49:36,0.000,0.0,0.0,0.0
18/01/2022,03:50:37,0.000,0.0,0.0,0.0
18/01/2022,03:51:36,0.001,0.0,0.0,0.0
18/01/2022,03:52:36,0.000,0.0,0.0,0.0
18/01/2022,03:53:36,-0.000,0.0,0.0,0.0
18/01/2022,03:54:37,-0.001,0.0,0.0,0.0
18/01/2022,03:55:36,0.000,0.0,0.0,0.0
18/01/2022,03:56:37,0.000,0.0,0.0,0.0
18/01/2022,03:57:37,-0.000,0.0,0.0,0.0
18/01/2022,03:58:36,0.000,0.0,0.0,0.0
18/01/2022,03:59:36,0.000,0.0,0.0,0.0
18/01/2022,04:00:37,0.000,0.0,0.0,0.0
18/01/2022,04:01:37,-0.000,0.0,0.0,0.0
18/01/2022,04:02:36,0.000,0.0,0.0,0.0
18/01/2022,04:03:37,0.000,0.0,0.0,0.0
18/01/2022,04:04:45,0.000,0.0,0.0,0.0
18/01/2022,04:05:36,0.000,0.0,0.0,0.0
18/01/2022,04:06:36,0.000,0.0,0.0,0.0
18/01/2022,04:07:37,0.000,0.0,0.0,0.0
18/01/2022,04:08:36,0.001,0.0,0.0,0.0
18/01/2022,04:09:37,0.000,0.0,0.0,0.0
18/01/2022,04:10:36,0.000,0.0,0.0,0.0
18/01/2022,04:11:36,0.001,0.0,0.0,0.0
18/01/2022,04:12:37,0.001,0.0,0.0,0.0
18/01/2022,04:13:36,0.001,0.0,0.0,0.0
18/01/2022,04:14:37,0.002,0.0,0.0,0.0
18/01/2022,04:15:45,0.001,0.0,0.0,0.0
18/01/2022,04:16:37,0.000,0.0,0.0,0.0
18/01/2022,04:17:36,0.000,0.0,0.0,0.0
18/01/2022,04:18:37,0.001,0.0,0.0,0.0
18/01/2022,04:19:36,0.001,0.0,0.0,0.0
18/01/2022,04:20:36,0.000,0.0,0.0,0.0
18/01/2022,04:21:36,0.001,0.0,0.0,0.0
18/01/2022,04:22:37,0.001,0.0,0.0,0.0
18/01/2022,04:23:37,0.000,0.0,0.0,0.0
18/01/2022,04:24:36,0.001,0.0,0.0,0.0
18/01/2022,04:25:45,-0.000,0.0,0.0,0.0
18/01/2022,04:26:35,0.001,0.0,0.0,0.0
18/01/2022,04:27:37,0.001,0.0,0.0,0.0
18/01/2022,04:28:44,0.001,0.0,0.0,0.0
18/01/2022,04:29:36,0.000,0.0,0.0,0.0
18/01/2022,04:30:38,0.001,0.0,0.0,0.0
18/01/2022,04:31:36,0.001,0.0,0.0,0.0
18/01/2022,04:32:36,0.001,0.0,0.0,0.0
18/01/2022,04:33:36,0.002,0.0,0.0,0.0
18/01/2022,04:34:37,0.001,0.0,0.0,0.0
18/01/2022,04:35:36,-0.000,0.0,0.0,0.0
18/01/2022,04:36:36,-0.000,0.0,0.0,0.0
18/01/2022,04:37:36,0.000,0.0,0.0,0.0
18/01/2022,04:38:45,0.000,0.0,0.0,0.0
18/01/2022,04:39:43,0.001,0.0,0.0,0.0
18/01/2022,04:40:36,0.001,0.0,0.0,0.0
18/01/2022,04:41:37,0.000,0.0,0.0,0.0
18/01/2022,04:42:37,0.000,0.0,0.0,0.0
18/01/2022,04:43:37,0.000,0.0,0.0,0.0
18/01/2022,04:44:36,0.001,0.0,0.0,0.0
18/01/2022,04:45:37,0.000,0.0,0.0,0.0
18/01/2022,04:46:36,0.000,0.0,0.0,0.0
18/01/2022,04:47:37,0.001,0.0,0.0,0.0
18/01/2022,04:48:36,0.000,0.0,0.0,0.0
18/01/2022,04:49:45,0.000,0.0,0.0,0.0
18/01/2022,04:50:36,0.000,0.0,0.0,0.0
18/01/2022,04:51:36,0.001,0.0,0.0,0.0
18/01/2022,04:52:37,0.001,0.0,0.0,0.0
18/01/2022,04:53:36,0.002,0.0,0.0,0.0
18/01/2022,04:54:37,0.000,0.0,0.0,0.0
18/01/2022,04:55:36,0.001,0.0,0.0,0.0
18/01/2022,04:56:36,0.000,0.0,0.0,0.0
18/01/2022,04:57:37,0.001,0.0,0.0,0.0
18/01/2022,04:58:28,0.001,0.0,0.0,0.0
18/01/2022,04:59:37,0.001,0.0,0.0,0.0
18/01/2022,05:00:37,0.000,0.0,0.0,0.0
18/01/2022,05:01:37,0.001,0.0,0.0,0.0
18/01/2022,05:02:36,-0.000,0.0,0.0,0.0
18/01/2022,05:03:37,0.001,0.0,0.0,0.0
18/01/2022,05:04:37,0.001,0.0,0.0,0.0
18/01/2022,05:05:37,0.001,0.0,0.0,0.0
18/01/2022,05:06:36,0.000,0.0,0.0,0.0
18/01/2022,05:07:37,0.001,0.0,0.0,0.0
18/01/2022,05:08:37,0.000,0.0,0.0,0.0
18/01/2022,05:10:37,0.001,0.0,0.0,0.0
18/01/2022,05:11:37,0.000,0.0,0.0,0.0
18/01/2022,05:12:36,0.001,0.0,0.0,0.0
18/01/2022,05:13:37,0.000,0.0,0.0,0.0
18/01/2022,05:14:36,0.000,0.0,0.0,0.0
18/01/2022,05:15:36,0.001,0.0,0.0,0.0
18/01/2022,05:16:36,0.001,0.0,0.0,0.0
18/01/2022,05:17:37,-0.000,0.0,0.0,0.0
18/01/2022,05:18:36,0.001,0.0,0.0,0.0
18/01/2022,05:19:36,0.001,0.0,0.0,0.0
18/01/2022,05:20:45,0.000,0.0,0.0,0.0
18/01/2022,05:21:37,0.001,0.0,0.0,0.0
18/01/2022,05:22:37,-0.000,0.0,0.0,0.0
18/01/2022,05:23:44,0.001,0.0,0.0,0.0
18/01/2022,05:24:37,0.001,0.0,0.0,0.0
18/01/2022,05:25:36,0.001,0.0,0.0,0.0
18/01/2022,05:26:36,0.002,0.0,0.0,0.0
18/01/2022,05:27:38,0.001,0.0,0.0,0.0
18/01/2022,05:28:36,0.001,0.0,0.0,0.0
18/01/2022,05:29:37,0.001,0.0,0.0,0.0
18/01/2022,05:30:36,0.001,0.0,0.0,0.0
18/01/2022,05:31:45,0.001,0.0,0.0,0.0
18/01/2022,05:32:37,0.001,0.0,0.0,0.0
18/01/2022,05:33:37,0.001,0.0,0.0,0.0
18/01/2022,05:34:36,0.001,0.0,0.0,0.0
18/01/2022,05:35:36,0.001,0.0,0.0,0.0
18/01/2022,05:36:37,0.001,0.0,0.0,0.0
18/01/2022,05:37:37,0.001,0.0,0.0,0.0
18/01/2022,05:38:36,0.001,0.0,0.0,0.0
18/01/2022,05:39:37,0.001,0.0,0.0,0.0
18/01/2022,05:40:36,0.001,0.0,0.0,0.0
18/01/2022,05:41:45,0.001,0.0,0.0,0.0
18/01/2022,05:42:36,0.001,0.0,0.0,0.0
18/01/2022,05:43:36,0.002,0.0,0.0,0.0
18/01/2022,05:44:37,0.001,0.0,0.0,0.0
18/01/2022,05:45:37,0.001,0.0,0.0,0.0
18/01/2022,05:46:36,0.000,0.0,0.0,0.0
18/01/2022,05:47:37,0.001,0.0,0.0,0.0
18/01/2022,05:48:36,0.001,0.0,0.0,0.0
18/01/2022,05:49:37,0.001,0.0,0.0,0.0
18/01/2022,05:50:36,0.001,0.0,0.0,0.0
18/01/2022,05:51:36,0.000,0.0,0.0,0.0
18/01/2022,05:52:36,0.001,0.0,0.0,0.0
18/01/2022,05:53:36,0.001,0.0,0.0,0.0
18/01/2022,05:54:37,0.000,0.0,0.0,0.0
18/01/2022,05:55:45,0.001,0.0,0.0,0.0
18/01/2022,05:56:36,0.000,0.0,0.0,0.0
18/01/2022,05:57:37,0.001,0.0,0.0,0.0
18/01/2022,05:58:36,0.001,0.0,0.0,0.0
18/01/2022,05:59:36,0.001,0.0,0.0,0.0
18/01/2022,06:00:36,0.001,0.0,0.0,0.0
18/01/2022,06:01:36,0.001,0.0,0.0,0.0
18/01/2022,06:02:36,0.001,0.0,0.0,0.0
18/01/2022,06:03:37,0.001,0.0,0.0,0.0
18/01/2022,06:04:37,0.001,0.0,0.0,0.0
18/01/2022,06:05:45,0.001,0.0,0.0,0.0
18/01/2022,06:06:37,0.001,0.0,0.0,0.0
18/01/2022,06:07:36,0.001,0.0,0.0,0.0
18/01/2022,06:08:36,0.001,0.0,0.0,0.0
18/01/2022,06:09:36,0.002,0.0,0.0,0.0
18/01/2022,06:10:37,0.001,0.0,0.0,0.0
18/01/2022,06:11:37,0.001,0.0,0.0,0.0
18/01/2022,06:12:37,0.000,0.0,0.0,0.0
18/01/2022,06:13:36,0.001,0.0,0.0,0.0
18/01/2022,06:14:37,0.000,0.0,0.0,0.0
18/01/2022,06:15:44,0.000,0.0,0.0,0.0
18/01/2022,06:16:45,0.001,0.0,0.0,0.0
18/01/2022,06:17:29,0.001,0.0,0.0,0.0
18/01/2022,06:18:37,0.001,0.0,0.0,0.0
18/01/2022,06:19:36,0.001,0.0,0.0,0.0
18/01/2022,06:20:30,0.001,0.0,0.0,0.0
18/01/2022,06:21:37,0.001,0.0,0.0,0.0
18/01/2022,06:22:37,0.002,0.0,0.0,0.0
18/01/2022,06:23:46,0.001,0.0,0.0,0.0
18/01/2022,06:24:36,0.001,0.0,0.0,0.0
18/01/2022,06:25:36,0.001,0.0,0.0,0.0
18/01/2022,06:26:36,0.001,0.0,0.0,0.0
18/01/2022,06:27:37,0.001,0.0,0.0,0.0
18/01/2022,06:28:36,0.001,0.0,0.0,0.0
18/01/2022,06:29:37,0.000,0.0,0.0,0.0
18/01/2022,06:30:37,0.000,0.0,0.0,0.0
18/01/2022,06:31:36,0.001,0.0,0.0,0.0
18/01/2022,06:32:37,0.001,0.0,0.0,0.0
18/01/2022,06:33:36,0.001,0.0,0.0,0.0
18/01/2022,06:34:37,0.002,0.0,0.0,0.0
18/01/2022,06:35:37,0.001,0.0,0.0,0.0
18/01/2022,06:36:37,0.001,0.0,0.0,0.0
18/01/2022,06:37:37,0.001,0.0,0.0,0.0
18/01/2022,06:38:36,0.001,0.0,0.0,0.0
18/01/2022,06:39:37,0.002,0.0,0.0,0.0
18/01/2022,06:40:37,0.001,0.0,0.0,0.0
18/01/2022,06:41:37,0.000,0.0,0.0,0.0
18/01/2022,06:42:36,0.001,0.0,0.0,0.0
18/01/2022,06:43:37,0.000,0.0,0.0,0.0
18/01/2022,06:44:45,0.001,0.0,0.0,0.0
18/01/2022,06:45:37,0.002,0.0,0.0,0.0
18/01/2022,06:46:37,-0.000,0.0,0.0,0.0
18/01/2022,06:47:45,0.001,0.0,0.0,0.0
18/01/2022,06:48:36,0.001,0.0,0.0,0.0
18/01/2022,06:49:37,0.001,0.0,0.0,0.0
18/01/2022,06:50:37,0.001,0.0,0.0,0.0
18/01/2022,06:51:36,0.001,0.0,0.0,0.0
18/01/2022,06:52:37,0.001,0.0,0.0,0.0
18/01/2022,06:53:37,0.001,0.0,0.0,0.0
18/01/2022,06:54:45,0.001,0.0,0.0,0.0
18/01/2022,06:55:36,0.001,0.0,0.0,0.0
18/01/2022,06:56:37,0.001,0.0,0.0,0.0
18/01/2022,06:57:37,0.001,0.0,0.0,0.0
18/01/2022,06:58:36,0.001,0.0,0.0,0.0
18/01/2022,06:59:37,0.001,0.0,0.0,0.0
18/01/2022,07:00:36,0.001,0.0,0.0,0.0
18/01/2022,07:01:36,0.001,0.0,0.0,0.0
18/01/2022,07:02:38,0.000,0.0,0.0,0.0
18/01/2022,07:03:37,0.001,0.0,0.0,0.0
18/01/2022,07:04:36,0.001,0.0,0.0,0.0
18/01/2022,07:05:45,0.001,0.0,0.0,0.0
18/01/2022,07:06:37,0.000,0.0,0.0,0.0
18/01/2022,07:07:45,0.001,0.0,0.0,0.0
18/01/2022,07:08:36,0.000,0.0,0.0,0.0
18/01/2022,07:09:45,0.001,0.0,0.0,0.0
18/01/2022,07:10:37,0.002,0.0,0.0,0.0
18/01/2022,07:11:37,0.000,0.0,0.0,0.0
18/01/2022,07:12:37,0.001,0.0,0.0,0.0
18/01/2022,07:13:37,0.001,0.0,0.0,0.0
18/01/2022,07:14:36,0.000,0.0,0.0,0.0
18/01/2022,07:15:36,0.001,0.0,0.0,0.0
18/01/2022,07:16:36,0.001,0.0,0.0,0.0
18/01/2022,07:17:37,0.001,0.0,0.0,0.0
18/01/2022,07:18:45,0.001,0.0,0.0,0.0
18/01/2022,07:19:37,0.001,0.0,0.0,0.0
18/01/2022,07:20:37,0.001,0.0,0.0,0.0
18/01/2022,07:21:36,0.001,0.0,0.0,0.0
18/01/2022,07:22:37,0.001,0.0,0.0,0.0
18/01/2022,07:23:36,0.001,0.0,0.0,0.0
18/01/2022,07:24:37,0.002,0.0,0.0,0.0
18/01/2022,07:25:36,0.001,0.0,0.0,0.0
18/01/2022,07:26:45,0.001,0.0,0.0,0.0
18/01/2022,07:27:36,0.001,0.0,0.0,0.0
18/01/2022,07:28:37,0.001,0.0,0.0,0.0
18/01/2022,07:30:37,0.001,0.0,0.0,0.0
18/01/2022,07:31:36,0.001,0.0,0.0,0.0
18/01/2022,07:32:36,0.000,0.0,0.0,0.0
18/01/2022,07:33:37,0.001,0.0,0.0,0.0
18/01/2022,07:34:37,0.001,0.0,0.0,0.0
18/01/2022,07:35:37,0.001,0.0,0.0,0.0
18/01/2022,07:36:37,0.001,0.0,0.0,0.0
18/01/2022,07:37:37,0.001,0.0,0.0,0.0
18/01/2022,07:38:37,0.001,0.0,0.0,0.0
18/01/2022,07:39:37,0.001,0.0,0.0,0.0
18/01/2022,07:40:37,0.001,0.0,0.0,0.0
18/01/2022,07:41:37,0.001,0.0,0.0,0.0
18/01/2022,07:42:37,0.001,0.0,0.0,0.0
18/01/2022,07:43:36,0.001,0.0,0.0,0.0
18/01/2022,07:44:37,0.001,0.0,0.0,0.0
18/01/2022,07:45:36,0.001,0.0,0.0,0.0
18/01/2022,07:46:37,0.001,0.0,0.0,0.0
18/01/2022,07:47:45,0.001,0.0,0.0,0.0
18/01/2022,07:48:36,0.001,0.0,0.0,0.0
18/01/2022,07:49:37,0.002,0.0,0.0,0.0
18/01/2022,07:50:36,0.002,0.0,0.0,0.0
18/01/2022,07:51:36,0.002,0.0,0.0,0.0
18/01/2022,07:52:37,0.001,0.0,0.0,0.0
18/01/2022,07:53:36,0.002,0.0,0.0,0.0
18/01/2022,07:54:37,0.002,0.0,0.0,0.0
18/01/2022,07:55:36,0.003,0.0,0.0,0.0
18/01/2022,07:56:36,0.001,0.0,0.0,0.0
18/01/2022,07:57:37,0.002,0.0,0.0,0.0
18/01/2022,07:58:37,0.002,0.0,0.0,0.0
18/01/2022,07:59:37,0.002,0.0,0.0,0.0
18/01/2022,08:00:37,0.002,0.0,0.0,0.0
18/01/2022,08:01:36,0.002,0.0,0.0,0.0
18/01/2022,08:02:37,0.002,0.0,0.0,0.0
18/01/2022,08:03:36,0.003,0.0,0.0,0.0
18/01/2022,08:04:38,0.004,0.0,0.0,0.0
18/01/2022,08:05:37,0.003,0.0,0.0,0.0
18/01/2022,08:06:38,0.003,0.0,0.0,0.0
18/01/2022,08:07:37,0.004,0.0,0.0,0.0
18/01/2022,08:08:45,0.004,0.0,0.0,0.0
18/01/2022,08:09:35,0.005,0.0,0.0,0.0
18/01/2022,08:10:36,0.004,0.0,0.0,0.0
18/01/2022,08:11:37,0.005,0.0,0.0,0.0
18/01/2022,08:12:37,0.005,0.0,0.0,0.0
18/01/2022,08:13:36,0.005,0.0,0.0,0.0
18/01/2022,08:14:37,0.005,0.0,0.0,0.0
18/01/2022,08:15:36,0.005,0.0,0.0,0.0
18/01/2022,08:16:36,0.005,0.0,0.0,0.0
18/01/2022,08:17:36,0.006,0.0,0.0,0.0
18/01/2022,08:18:39,0.006,0.0,0.0,0.0
18/01/2022,08:19:36,0.006,0.0,0.0,0.0
18/01/2022,08:20:36,0.006,0.0,0.0,0.0
18/01/2022,08:21:36,0.006,0.0,0.0,0.0
18/01/2022,08:22:37,0.007,0.0,0.0,0.0
18/01/2022,08:23:37,0.007,0.0,0.001,0.001
18/01/2022,08:24:37,0.008,0.0,0.001,0.0
18/01/2022,08:25:37,0.008,0.0,0.001,0.0
18/01/2022,08:26:37,0.008,0.0,0.001,0.0
18/01/2022,08:27:37,0.009,0.0,0.001,0.0
18/01/2022,08:28:37,0.010,0.0,0.001,0.0
18/01/2022,08:29:37,0.010,0.0,0.001,0.0
18/01/2022,08:30:36,0.010,0.0,0.002,0.001
18/01/2022,08:31:37,0.011,0.0,0.002,0.0
18/01/2022,08:32:37,0.012,0.0,0.002,0.0
18/01/2022,08:33:37,0.011,0.0,0.002,0.0
18/01/2022,08:34:36,0.012,0.0,0.002,0.0
18/01/2022,08:35:37,0.012,0.0,0.002,0.0
18/01/2022,08:36:37,0.013,0.0,0.003,0.001
18/01/2022,08:37:37,0.013,0.0,0.003,0.0
18/01/2022,08:38:37,0.013,0.0,0.003,0.0
18/01/2022,08:39:45,0.014,0.0,0.003,0.0
18/01/2022,08:40:37,0.014,0.0,0.004,0.001
18/01/2022,08:41:37,0.015,0.0,0.004,0.0
18/01/2022,08:42:46,0.015,0.0,0.004,0.0
18/01/2022,08:43:37,0.015,0.0,0.004,0.0
18/01/2022,08:44:37,0.015,0.0,0.005,0.001
18/01/2022,08:45:37,0.016,0.0,0.005,0.0
18/01/2022,08:46:37,0.017,0.0,0.005,0.0
18/01/2022,08:47:36,0.017,0.0,0.005,0.0
18/01/2022,08:48:37,0.018,0.0,0.006,0.001
18/01/2022,08:49:37,0.018,0.0,0.006,0.0
18/01/2022,08:50:35,0.020,0.0,0.006,0.0
18/01/2022,08:51:37,0.019,0.0,0.007,0.001
18/01/2022,08:52:36,0.020,0.0,0.007,0.0
18/01/2022,08:53:46,0.022,0.0,0.007,0.0
18/01/2022,08:54:37,0.021,0.0,0.008,0.001
18/01/2022,08:55:36,0.022,0.0,0.008,0.0
18/01/2022,08:56:36,0.023,0.0,0.008,0.0
18/01/2022,08:57:37,0.022,0.0,0.009,0.001
18/01/2022,08:58:36,0.024,0.0,0.009,-0.0
18/01/2022,08:59:37,0.024,0.0,0.01,0.001
18/01/2022,09:00:37,0.026,0.0,0.01,0.0
18/01/2022,09:01:37,0.026,0.0,0.01,0.0
18/01/2022,09:02:36,0.027,0.0,0.011,0.001
18/01/2022,09:03:37,0.028,0.0,0.011,-0.0
18/01/2022,09:04:37,0.028,0.0,0.012,0.001
18/01/2022,09:05:36,0.029,0.0,0.012,0.0
18/01/2022,09:06:36,0.029,0.0,0.013,0.001
18/01/2022,09:07:45,0.030,0.0,0.013,-0.0
18/01/2022,09:08:37,0.031,0.0,0.014,0.001
18/01/2022,09:09:37,0.032,0.0,0.014,0.0
18/01/2022,09:10:37,0.033,0.0,0.015,0.001
18/01/2022,09:11:49,0.033,0.0,0.015,0.0
18/01/2022,09:13:37,0.035,0.0,0.016,0.001
18/01/2022,09:14:37,0.036,0.0,0.017,0.001
18/01/2022,09:15:37,0.037,0.0,0.018,0.001
18/01/2022,09:16:37,0.037,0.0,0.018,-0.0
18/01/2022,09:17:45,0.038,0.0,0.019,0.001
18/01/2022,09:18:37,0.039,0.0,0.019,0.0
18/01/2022,09:19:37,0.039,0.0,0.02,0.001
18/01/2022,09:20:36,0.041,0.0,0.021,0.001
18/01/2022,09:21:37,0.042,0.0,0.022,0.001
18/01/2022,09:22:37,0.043,0.0,0.022,-0.0
18/01/2022,09:23:37,0.044,0.0,0.023,0.001
18/01/2022,09:24:38,0.045,0.0,0.024,0.001
18/01/2022,09:25:37,0.045,0.0,0.024,0.0
18/01/2022,09:26:37,0.047,0.0,0.025,0.001
18/01/2022,09:27:38,0.047,0.0,0.026,0.001
18/01/2022,09:28:45,0.048,0.0,0.027,0.001
18/01/2022,09:29:37,0.050,0.0,0.028,0.001
18/01/2022,09:30:37,0.050,0.0,0.028,0.0
18/01/2022,09:31:46,0.052,0.0,0.029,0.001
18/01/2022,09:32:37,0.053,0.0,0.03,0.001
18/01/2022,09:33:37,0.053,0.0,0.031,0.001
18/01/2022,09:34:37,0.054,0.0,0.032,0.001
18/01/2022,09:35:37,0.055,0.0,0.033,0.001
18/01/2022,09:36:37,0.056,0.0,0.034,0.001
18/01/2022,09:37:37,0.058,0.0,0.035,0.001
18/01/2022,09:38:36,0.058,0.0,0.036,0.001
18/01/2022,09:39:46,0.060,0.0,0.037,0.001
18/01/2022,09:40:37,0.060,0.0,0.038,0.001
18/01/2022,09:41:37,0.062,0.0,0.039,0.001
18/01/2022,09:42:36,0.064,0.0,0.04,0.001
18/01/2022,09:43:37,0.065,0.0,0.041,0.001
18/01/2022,09:44:37,0.065,0.0,0.042,0.001
18/01/2022,09:45:46,0.067,0.0,0.043,0.001
18/01/2022,09:47:38,0.069,0.0,0.045,0.002
18/01/2022,09:48:36,0.069,0.0,0.046,0.001
18/01/2022,09:49:37,0.071,0.0,0.048,0.002
18/01/2022,09:51:38,0.073,0.0,0.05,0.002
18/01/2022,09:52:37,0.074,0.0,0.051,0.001
18/01/2022,09:53:37,0.074,0.0,0.052,0.001
18/01/2022,09:54:37,0.077,0.0,0.054,0.002
18/01/2022,09:55:37,0.077,0.0,0.055,0.001
18/01/2022,09:56:38,0.078,0.0,0.056,0.001
18/01/2022,09:57:36,0.079,0.0,0.058,0.002
18/01/2022,09:58:37,0.080,0.0,0.059,0.001
18/01/2022,09:59:37,0.081,0.0,0.06,0.001
18/01/2022,10:00:37,0.083,0.0,0.062,0.002
18/01/2022,10:01:37,0.083,0.0,0.063,0.001
18/01/2022,10:02:37,0.084,0.0,0.064,0.001
18/01/2022,10:03:38,0.086,0.0,0.066,0.002
18/01/2022,10:04:36,0.087,0.0,0.067,0.001
18/01/2022,10:05:37,0.088,0.0,0.069,0.002
18/01/2022,10:06:48,0.089,0.0,0.071,0.002
18/01/2022,10:08:39,0.091,0.0,0.073,0.002
18/01/2022,10:09:45,0.092,0.0,0.075,0.002
18/01/2022,10:10:36,0.092,0.0,0.076,0.001
18/01/2022,10:11:37,0.094,0.0,0.078,0.002
18/01/2022,10:12:37,0.097,0.0,0.079,0.001
18/01/2022,10:13:37,0.096,0.0,0.081,0.002
18/01/2022,10:14:37,0.098,0.0,0.083,0.002
18/01/2022,10:15:37,0.099,0.0,0.084,0.001
18/01/2022,10:16:45,0.101,0.0,0.086,0.002
18/01/2022,10:17:37,0.101,0.0,0.088,0.002
18/01/2022,10:18:37,0.103,0.0,0.089,0.001
18/01/2022,10:19:37,0.105,0.0,0.091,0.002
18/01/2022,10:20:37,0.105,0.0,0.093,0.002
18/01/2022,10:21:37,0.108,0.0,0.095,0.002
18/01/2022,10:22:36,0.108,0.0,0.096,0.001
18/01/2022,10:23:37,0.110,0.0,0.098,0.002
18/01/2022,10:24:37,0.111,0.0,0.1,0.002
18/01/2022,10:25:38,0.112,0.0,0.102,0.002
18/01/2022,10:26:45,0.114,0.0,0.104,0.002